Location: Beutels
(47.8767°N, 9.8584°E)
Time: 23:54:55
(UTC+00:00)

Lacrosse 5 rocket - Pass Details

Date: 19 May 2025
Orbit: 419 x 515 km, 57.0° (Epoch: 21 June)

Event Time Altitude Azimuth Distance (km) Brightness Sun altitude
Rises 19:46:47 0° 307° (NW) 2,505 7.3 -7.5°
Reaches altitude 10° 19:49:00 10° 313° (NW) 1,608 5.5 -7.7°
Maximum altitude 19:52:32 53° 31° (NNE) 556 1.4 -8.2°
Enters shadow 19:55:55 10° 110° (ESE) 1,543 3.0 -8.6°
